Wind_Speed
19 19 16 12 9 5 4 8 14 18 18 17 17 16 16 15 15 15 15 17 17 16 17 17 17 18 18 19 20 20 21 22 24 25 25 25 25 25 25 26 27 28
17 18 17 14 10 9 9 12 14 16 17 17 17 16 16 15 15 15 16 15 15 16 17 18 19 21 22 22 23 24 25 26 27 28 29 30 30 30 30 29 29 29
16 16 17 16 13 12 13 14 15 16 17 17 17 16 16 16 15 15 16 15 15 17 19 21 23 24 25 26 27 27 28 29 30 32 34 35 33 32 33 32 31 31
16 15 16 17 16 15 15 15 16 17 17 18 19 18 17 17 16 15 16 15 16 19 21 24 26 27 28 29 29 30 31 32 34 36 38 39 38 36 36 35 34 34
17 16 16 18 19 18 17 16 16 16 17 18 19 19 18 17 16 15 15 15 17 20 23 26 28 30 31 31 31 32 33 35 38 40 42 42 41 40 39 38 37 37
17 15 15 18 20 20 19 18 17 16 16 17 19 19 19 17 15 15 14 15 18 21 23 26 29 31 32 32 33 34 37 39 41 43 44 44 43 41 40 39 40 43
16 15 15 16 19 20 20 20 18 16 16 17 19 19 19 17 15 14 14 15 17 20 23 26 29 30 31 32 35 38 40 43 44 46 46 45 44 42 41 43 47 51
15 15 14 15 18 19 20 21 20 18 18 19 20 19 19 17 15 14 13 14 16 18 22 26 29 31 32 35 38 41 43 45 47 48 48 47 45 45 47 51 54 53
14 15 14 15 16 18 19 21 21 21 21 22 21 20 19 18 16 15 14 14 15 17 20 25 29 32 34 36 40 42 45 47 49 49 49 48 48 50 53 56 54 49
14 15 14 14 15 16 19 20 21 22 23 24 23 22 20 19 17 16 14 14 15 17 20 25 30 32 33 36 40 43 46 48 49 50 50 50 51 53 55 54 49 44
14 15 15 14 14 16 19 21 22 23 24 25 25 23 22 20 18 17 15 15 15 16 20 25 29 31 33 37 40 43 46 48 50 51 52 52 52 53 52 49 45 40
14 14 15 15 15 16 18 20 22 24 25 27 26 25 23 21 19 18 16 15 15 17 20 25 28 30 33 37 41 44 47 49 51 52 53 53 52 52 50 46 41 37
13 14 16 15 16 17 18 21 23 24 26 28 27 26 23 21 20 18 17 15 15 18 22 25 27 29 33 37 41 44 48 50 52 53 54 54 53 51 47 42 38 35
13 15 17 16 17 18 20 21 23 25 27 28 29 26 23 21 20 19 18 15 15 18 23 25 26 28 31 36 40 44 48 51 53 53 54 54 52 49 45 40 37 35
14 15 18 17 18 19 21 22 24 25 27 29 29 26 23 20 19 19 18 15 15 18 23 25 26 27 30 34 38 42 46 50 53 53 54 54 52 49 44 40 37 36
17 16 18 18 19 21 22 23 24 25 26 29 29 26 22 20 19 19 18 16 15 18 22 24 25 27 29 32 36 40 44 49 52 53 53 53 53 50 46 41 38 36
20 19 18 19 20 22 23 23 23 24 26 28 29 26 22 20 19 20 19 17 17 19 21 23 25 26 28 31 35 38 41 46 51 52 52 53 52 51 48 44 40 37
23 21 18 18 21 23 24 24 23 24 26 28 28 25 22 20 20 21 20 19 19 19 21 22 23 25 27 29 34 37 38 43 49 51 52 52 52 52 51 48 44 40
24 23 20 19 22 24 24 24 24 25 26 28 29 25 21 19 20 21 20 19 19 20 21 22 22 23 25 28 32 36 37 40 46 50 52 53 53 53 52 51 48 44
23 24 22 20 23 25 25 24 24 25 27 29 29 26 22 20 21 20 19 19 20 21 22 22 21 22 24 27 31 35 36 38 43 48 51 53 55 55 54 53 51 48
26 25 23 22 25 26 25 25 24 26 28 30 30 27 23 21 21 20 19 21 23 24 24 23 22 22 24 26 30 34 36 37 40 45 49 52 55 56 56 55 53 51
30 27 24 24 27 27 26 25 25 26 29 31 31 28 25 22 21 20 21 23 25 26 25 24 22 22 23 26 30 34 36 37 39 43 46 50 53 56 57 57 56 54
31 28 26 27 29 29 27 26 26 27 30 32 32 30 26 23 21 21 22 22 24 25 25 24 22 21 22 26 30 34 35 37 39 41 44 48 52 55 57 58 57 56
32 28 27 29 30 30 29 27 26 28 31 33 33 31 27 24 23 22 22 22 23 25 24 23 22 21 22 26 30 33 34 35 38 40 42 46 49 53 57 58 58 57
33 29 28 30 30 29 28 27 28 30 33 34 33 32 29 26 25 24 23 24 25 26 26 24 22 21 22 25 29 31 33 34 36 38 42 45 48 51 56 58 58 58
32 29 30 30 30 29 29 30 31 33 34 34 33 33 30 27 26 26 25 25 28 28 27 26 23 21 22 25 28 30 32 33 35 37 41 44 46 50 54 57 58 58
Wind_Direction
10 14 16 16 22 40 18 350 349 358 10 16 16 16 15 16 16 17 19 19 16 15 14 12 8 5 3 359 355 351 349 347 345 344 342 338 335 332 326 320 311 303
4 9 14 13 9 2 348 339 342 352 6 10 7 7 7 6 10 17 20 21 19 15 11 8 4 2 359 357 354 351 349 349 347 344 341 339 338 336 332 327 320 313
358 2 8 11 6 360 353 347 345 350 359 3 0 0 1 2 8 17 19 19 16 11 9 8 4 2 358 355 353 350 348 346 343 341 339 337 335 334 332 330 326 321
353 353 358 3 1 355 352 346 342 344 351 355 354 355 357 359 6 15 15 13 10 9 9 7 4 2 359 355 352 349 346 344 342 341 339 337 334 332 331 330 328 325
348 346 349 355 356 353 350 344 337 337 344 349 348 349 352 355 2 9 9 6 5 6 6 4 2 360 358 356 353 350 348 345 343 342 341 339 336 334 333 331 330 329
342 342 342 347 351 350 349 346 338 332 336 342 341 342 347 351 356 1 2 360 0 0 0 360 359 357 355 354 352 350 348 346 345 344 343 340 338 335 334 334 334 333
337 338 336 339 343 344 344 343 340 333 328 331 333 336 342 345 348 353 355 354 354 354 355 355 355 354 352 350 349 348 347 347 346 345 343 341 339 337 338 338 336 332
332 335 331 330 334 338 338 337 337 333 327 325 327 331 336 340 342 346 349 348 347 347 349 350 352 353 351 349 348 348 347 346 346 345 343 342 341 342 342 339 334 330
326 331 325 320 324 330 333 331 331 331 329 325 324 326 331 335 337 341 345 344 341 341 343 347 351 352 350 349 348 348 348 347 346 345 343 343 345 346 342 336 332 332
319 326 319 312 313 323 328 326 326 328 329 327 324 322 326 331 334 337 341 341 338 337 339 347 353 353 351 351 351 351 350 348 347 346 345 346 347 345 339 335 335 337
314 319 315 306 305 314 322 322 322 325 327 328 326 323 323 327 330 333 336 338 335 333 339 348 353 353 353 354 355 354 353 350 349 348 347 348 347 343 340 339 340 342
310 311 308 302 297 305 316 318 318 322 325 327 328 325 322 324 326 328 330 332 332 331 339 348 352 353 355 357 358 357 356 353 352 350 349 350 348 345 343 344 345 347
303 303 302 296 290 297 311 315 315 318 322 326 329 326 322 321 322 323 325 327 327 331 341 348 350 353 357 360 0 359 358 357 355 352 352 352 350 348 347 347 349 352
296 299 298 291 286 294 306 311 311 315 320 325 329 327 321 318 318 319 321 322 324 333 343 346 347 352 358 360 0 0 360 359 357 355 354 354 353 351 350 350 352 355
289 293 295 287 283 291 302 307 309 313 319 325 328 326 319 314 314 316 318 320 324 334 342 342 342 350 357 358 358 359 0 0 358 357 356 355 355 354 351 351 353 357
284 285 289 285 281 288 299 305 307 311 318 324 326 323 316 310 308 312 317 322 327 334 337 337 338 347 354 355 355 357 360 1 0 359 358 357 357 356 353 351 353 357
280 279 284 283 280 286 297 303 305 309 315 322 324 320 313 307 306 311 318 324 328 330 331 331 335 344 351 352 352 354 358 1 2 1 360 359 359 357 355 354 353 355
272 272 277 282 281 284 295 301 302 305 312 318 320 318 313 307 306 310 315 321 325 326 326 327 332 342 349 350 349 351 355 0 3 3 2 1 0 359 358 357 356 355
264 265 268 276 279 282 291 298 298 301 308 314 316 314 311 305 303 307 312 318 323 324 323 324 328 338 346 348 347 348 352 358 2 4 4 3 2 1 0 359 358 357
263 265 266 272 276 279 288 295 296 298 304 310 313 311 307 300 298 302 309 316 320 322 322 322 325 334 341 344 345 345 348 353 358 1 2 3 3 2 1 0 360 358
267 266 265 269 273 278 287 293 293 295 300 306 310 310 305 296 293 300 309 314 318 320 322 321 321 329 337 340 342 342 344 348 353 356 358 360 1 2 1 0 360 359
267 265 262 265 271 278 287 290 288 290 297 304 307 307 302 294 291 299 308 313 316 318 319 318 317 324 332 337 338 338 340 344 348 351 354 356 358 0 1 0 359 359
263 261 260 264 272 279 284 284 284 288 296 303 304 302 299 293 290 296 304 310 316 319 317 314 313 319 328 333 335 336 337 341 345 347 351 355 356 358 359 359 359 358
258 258 261 266 272 278 280 279 282 289 296 301 302 299 296 291 289 294 299 305 315 321 319 311 309 315 323 329 332 333 335 339 343 346 349 352 354 356 357 357 357 357
258 259 263 266 269 275 279 280 284 290 295 299 300 297 293 289 288 292 295 299 309 316 316 310 307 310 318 325 328 330 332 337 343 345 348 351 352 353 354 355 356 356
260 261 261 263 268 275 279 282 286 290 293 297 299 297 291 287 288 290 290 293 302 308 309 308 306 308 315 321 323 326 329 333 339 343 347 349 351 352 352 353 354 354
Height
11008 11006 11005 11004 11003 11001 11000 10998 10996 10995 10994 10993 10991 10990 10989 10988 10987 10986 10984 10982 10981 10980 10978 10977 10976 10975 10973 10972 10970 10969 10967 10965 10962 10960 10957 10954 10951 10947 10943 10940 10936 10933
11008 11007 11006 11004 11003 11002 11000 10998 10997 10996 10994 10993 10992 10990 10989 10988 10987 10985 10984 10983 10982 10980 10979 10977 10976 10974 10973 10972 10970 10968 10966 10964 10961 10958 10955 10951 10947 10943 10939 10935 10931 10928
11008 11007 11006 11005 11003 11002 11000 10999 10997 10996 10995 10994 10992 10991 10989 10988 10986 10985 10983 10982 10981 10980 10978 10976 10974 10973 10971 10970 10968 10966 10964 10961 10958 10956 10952 10948 10944 10939 10935 10931 10927 10923
11008 11007 11006 11005 11004 11002 11001 10999 10997 10996 10995 10994 10992 10991 10989 10988 10986 10984 10983 10982 10981 10979 10977 10975 10973 10971 10970 10968 10966 10964 10961 10958 10955 10952 10948 10944 10940 10935 10931 10927 10923 10918
11008 11007 11006 11005 11004 11002 11001 10999 10998 10996 10995 10993 10992 10990 10989 10987 10985 10984 10982 10981 10980 10977 10975 10974 10972 10970 10968 10966 10963 10961 10958 10955 10952 10948 10944 10940 10935 10931 10926 10922 10918 10914
11007 11006 11006 11005 11004 11002 11001 10999 10998 10996 10995 10993 10992 10990 10989 10987 10985 10984 10982 10981 10979 10977 10975 10973 10971 10969 10966 10964 10961 10959 10955 10952 10948 10944 10940 10936 10931 10927 10922 10918 10913 10909
11006 11006 11005 11004 11003 11002 11001 10999 10998 10996 10994 10993 10992 10990 10988 10987 10985 10984 10982 10981 10979 10977 10974 10973 10971 10968 10966 10963 10960 10957 10953 10949 10945 10941 10937 10932 10928 10923 10918 10913 10909 10904
11005 11005 11004 11004 11003 11001 11000 10999 10997 10996 10994 10993 10991 10990 10988 10987 10985 10984 10982 10980 10978 10976 10974 10972 10970 10968 10965 10963 10959 10955 10951 10947 10943 10938 10934 10929 10924 10919 10914 10909 10905 10899
11005 11004 11004 11003 11002 11001 10999 10998 10997 10995 10993 10992 10990 10989 10988 10986 10985 10983 10981 10980 10978 10976 10974 10972 10970 10967 10965 10962 10958 10954 10949 10945 10940 10936 10931 10926 10921 10915 10911 10906 10901 10895
11004 11003 11003 11002 11001 11000 10998 10997 10996 10994 10993 10991 10989 10988 10987 10986 10984 10982 10981 10979 10977 10975 10973 10972 10970 10967 10965 10961 10957 10953 10948 10943 10938 10934 10929 10923 10918 10913 10908 10902 10897 10892
11003 11002 11001 11001 10999 10998 10997 10996 10995 10993 10992 10990 10988 10987 10986 10985 10983 10981 10980 10978 10976 10974 10973 10971 10969 10967 10964 10960 10956 10951 10947 10942 10937 10932 10926 10921 10915 10910 10905 10899 10894 10890
11001 11001 11000 10999 10998 10997 10996 10995 10994 10992 10991 10989 10988 10986 10985 10983 10982 10980 10978 10977 10975 10973 10972 10970 10968 10966 10963 10959 10955 10951 10946 10941 10935 10930 10924 10919 10913 10908 10902 10897 10893 10889
11000 10999 10998 10997 10996 10995 10994 10993 10992 10991 10989 10988 10986 10985 10983 10982 10981 10979 10977 10975 10974 10972 10971 10969 10967 10965 10962 10958 10954 10950 10945 10940 10934 10929 10923 10917 10912 10906 10901 10897 10892 10888
10998 10997 10996 10995 10994 10993 10993 10992 10991 10990 10988 10987 10985 10983 10981 10980 10979 10977 10976 10974 10972 10971 10970 10968 10966 10964 10961 10957 10953 10949 10944 10939 10934 10928 10922 10917 10911 10906 10901 10897 10892 10888
10996 10995 10995 10993 10992 10991 10991 10990 10989 10988 10987 10985 10984 10982 10980 10978 10977 10976 10974 10973 10971 10970 10969 10967 10965 10963 10959 10956 10952 10948 10944 10939 10934 10928 10922 10916 10911 10906 10901 10897 10892 10887
10994 10993 10992 10991 10989 10989 10989 10988 10987 10986 10985 10984 10982 10980 10978 10977 10976 10974 10973 10971 10970 10969 10967 10965 10964 10961 10958 10955 10951 10947 10943 10939 10933 10927 10922 10916 10911 10906 10902 10897 10892 10887
10991 10991 10990 10988 10987 10986 10986 10986 10985 10985 10984 10982 10980 10978 10977 10975 10974 10973 10971 10970 10968 10967 10965 10963 10962 10959 10956 10953 10950 10946 10942 10938 10933 10927 10922 10916 10911 10906 10902 10897 10892 10887
10988 10987 10987 10986 10984 10984 10984 10984 10984 10983 10982 10980 10979 10977 10975 10974 10972 10971 10969 10968 10966 10964 10963 10961 10959 10957 10954 10951 10948 10945 10941 10937 10932 10927 10922 10916 10911 10907 10902 10896 10892 10887
10985 10984 10984 10983 10982 10981 10982 10982 10982 10981 10980 10978 10977 10975 10973 10972 10970 10969 10967 10965 10964 10962 10961 10959 10957 10955 10952 10949 10946 10943 10940 10935 10931 10926 10922 10917 10912 10907 10902 10896 10891 10886
10981 10981 10981 10981 10980 10979 10980 10980 10980 10979 10977 10976 10975 10973 10971 10970 10968 10966 10965 10963 10962 10960 10958 10957 10955 10953 10950 10948 10945 10942 10938 10934 10930 10926 10921 10917 10912 10907 10902 10896 10891 10886
10979 10979 10979 10978 10977 10977 10978 10978 10977 10976 10975 10974 10973 10971 10969 10967 10966 10965 10963 10961 10960 10958 10956 10955 10953 10951 10948 10946 10943 10940 10936 10933 10929 10925 10921 10916 10912 10907 10901 10896 10891 10886
10976 10976 10976 10975 10975 10975 10976 10976 10974 10973 10973 10972 10971 10969 10967 10965 10964 10963 10961 10959 10957 10956 10954 10953 10951 10949 10946 10944 10941 10938 10935 10931 10928 10924 10920 10915 10911 10906 10901 10896 10891 10885
10973 10973 10973 10972 10972 10973 10974 10973 10971 10970 10970 10970 10968 10966 10965 10963 10962 10961 10959 10957 10955 10953 10952 10950 10948 10946 10944 10942 10939 10936 10933 10930 10926 10923 10919 10914 10910 10905 10901 10896 10890 10885
10970 10971 10970 10970 10970 10971 10970 10970 10969 10968 10968 10967 10965 10964 10962 10961 10960 10959 10957 10955 10953 10951 10949 10947 10946 10944 10942 10939 10937 10934 10931 10928 10925 10921 10917 10913 10909 10904 10900 10895 10890 10885
10968 10968 10968 10967 10967 10968 10967 10967 10966 10966 10965 10964 10963 10961 10959 10958 10957 10956 10954 10952 10951 10949 10947 10945 10943 10941 10939 10937 10934 10932 10929 10926 10923 10919 10915 10912 10908 10903 10899 10894 10890 10884
10966 10965 10965 10965 10964 10964 10964 10964 10964 10963 10962 10961 10960 10957 10956 10955 10954 10953 10951 10950 10948 10947 10945 10942 10940 10939 10937 10934 10932 10930 10927 10924 10921 10917 10914 10910 10907 10903 10898 10894 10889 10884